map of UTP home
UTP - Airport
Location
City:  Rayong, Rayong, Thailand
Name:U-Taphao International Airport
ICAO:VTBU
IATA:UTP

Details
Type:Airport (Aerodrome, Airfield)
Use:Military, International (customs port of entry)
Latitude:12°40'48"N (12.679944)
Longitude:101°00'18"E (101.005028)
Datum:WGS 1984
Elevation:42 ft (13 m)
Variation:0.52°W (WMM2015 magnetic declination)
0.00° annual change
Runways:1
Longest:11500 × 197 ft (3505 × 60 m), paved

Time
Time Zone:UTC+7
Local Time:

Weather
METAR:VTBU 230330Z 24010KT 9999 FEW020 31/22 Q1007 NOSIG
TAF:VTBU 222300Z 2300/2324 25004KT 8000 FEW020
BECMG 2302/2304 22008KT 9999
TEMPO 2306/2611 FEW020CB
BECMG 2311/2313 27006KT

Related Locations
Nearby:
Farthest:LIM: 12312 mi / 19814 km
Lima (Callao) [Jorge Chávez Intl], CAL, PE

Find:

   beyond  
but within

Other Information
Maps:
NOTAMs:
Links:
Sources:

  
flag of Thailand   

Airport Diagram

Airport diagram for UTP

Larger airport diagram (OBSOLETE) from NGA

Sectional Chart

Flight Planning
at skyvector.com

Satellite Image

Google Maps Satellite view

 

Copyright © 2004-2017 Karl L. Swartz. All rights reserved.
The Great Circle Mapper name and logo are trademarks of the Great Circle Mapper.
All other trademarks mentioned herein belong to their respective owners.
Please see credits for attibutions and further copyright information.

  Follow gcmap on Facebook Follow gcmap on Twitter Follow gcmap on Google+ GCmap on LinkedIn

hCard Microformat

Geo Microformat